Location: Doux
(49.5045°N, 4.4321°E)
Time: 01:52:10
(UTC+00:00)

Cosmos 2251 Rocket - Pass Details

Date: 23 May 2024
Orbit: 762 x 790 km, 74.0° (Epoch: 16 June)

Event Time Altitude Azimuth Distance (km) Brightness Sun altitude
Exits shadow 00:44:25 27° 233° (SW) 1,449 4.5 -18.4°
Maximum altitude 00:47:06 54° 299° (WNW) 936 4.0 -18.2°
Drops below altitude 10° 00:52:17 10° 16° (NNE) 2,331 7.3 -18.0°
Sets 00:54:45 0° 22° (NNE) 3,267 8.5 -17.9°
